• In Switzerland
  • List of Countries
  • For 7 days
  • Water Temperature
  • Satellite Maps
  • Weather Map
  • Weather Widgets
  • user-avatar
    Login

    Hourly Weather Lillehammer

    Today, 22 November, Wednesday

    Time Temperature Precipitation Wind Pressure Humidity
    00:00 -12°C° 0 mm 0 mps 711 mmHg 85%
    01:00 -12°C° 0 mm 1 mps 711 mmHg 84%
    02:00 -11°C° 0 mm 1 mps 711 mmHg 84%
    03:00 -11°C° 0 mm 1 mps 710 mmHg 85%
    04:00 -11°C° 0 mm 1 mps 710 mmHg 85%
    05:00 -11°C° 0.3 mm 1 mps 709 mmHg 87%
    06:00 -11°C° 0.3 mm 1 mps 709 mmHg 89%
    07:00 -10°C° 0.3 mm 1 mps 708 mmHg 91%
    08:00 -10°C° 0.9 mm 1 mps 708 mmHg 92%
    09:00 -12°C° 0.9 mm 2 mps 708 mmHg 93%
    10:00 -10°C° 0.9 mm 2 mps 707 mmHg 94%
    11:00 -10°C° 0.8 mm 2 mps 707 mmHg 94%
    12:00 -9°C° 0.8 mm 2 mps 706 mmHg 94%
    13:00 -9°C° 0.8 mm 3 mps 706 mmHg 94%
    14:00 -9°C° 0.8 mm 3 mps 705 mmHg 94%
    15:00 -8°C° 0.8 mm 3 mps 704 mmHg 94%
    16:00 -8°C° 0.8 mm 3 mps 703 mmHg 94%
    17:00 -7°C° 0.9 mm 3 mps 703 mmHg 95%
    18:00 -7°C° 0.9 mm 3 mps 702 mmHg 95%
    19:00 -6°C° 0.9 mm 3 mps 701 mmHg 96%
    20:00 -5°C° 1.2 mm 3 mps 701 mmHg 96%
    21:00 -4°C° 1.2 mm 2 mps 700 mmHg 96%
    22:00 -3°C° 1.2 mm 2 mps 699 mmHg 96%
    23:00 -3°C° 1.7 mm 2 mps 698 mmHg 96%

    Tomorrow, 23 November, Thursday

    Time Temperature Precipitation Wind Pressure Humidity
    00:00 -2°C° 1.7 mm 2 mps 697 mmHg 97%
    01:00 -2°C° 1.7 mm 2 mps 696 mmHg 97%
    02:00 -1°C° 1.9 mm 2 mps 695 mmHg 97%
    03:00 0°C° 1.9 mm 3 mps 694 mmHg 97%
    04:00 0°C° 1.9 mm 3 mps 693 mmHg 97%
    05:00 +1°C° 1.6 mm 3 mps 693 mmHg 97%
    06:00 0°C° 1.6 mm 4 mps 692 mmHg 98%
    07:00 +1°C° 1.6 mm 4 mps 692 mmHg 98%
    08:00 +1°C° 1.7 mm 5 mps 692 mmHg 98%
    09:00 +2°C° 1.7 mm 5 mps 692 mmHg 98%
    10:00 +2°C° 1.7 mm 6 mps 691 mmHg 98%
    11:00 +2°C° 0.5 mm 6 mps 691 mmHg 98%
    12:00 +2°C° 0.5 mm 6 mps 691 mmHg 98%
    13:00 +2°C° 0.5 mm 6 mps 691 mmHg 98%
    14:00 +2°C° 0.6 mm 6 mps 691 mmHg 98%
    15:00 +2°C° 0.6 mm 6 mps 691 mmHg 98%
    16:00 +2°C° 0.6 mm 6 mps 691 mmHg 98%
    17:00 +2°C° 0.4 mm 6 mps 691 mmHg 96%
    18:00 +2°C° 0.4 mm 7 mps 691 mmHg 95%
    19:00 +2°C° 0.4 mm 7 mps 691 mmHg 93%
    20:00 0°C° 0.1 mm 7 mps 691 mmHg 92%
    21:00 0°C° 0.1 mm 7 mps 691 mmHg 90%
    22:00 -1°C° 0.1 mm 7 mps 691 mmHg 89%
    23:00 -1°C° 0.1 mm 7 mps 692 mmHg 85%

    Day after tomorrow, 24 November, Friday

    Time Temperature Precipitation Wind Pressure Humidity
    00:00 -1°C° 0.1 mm 7 mps 693 mmHg 81%
    01:00 -1°C° 0.1 mm 7 mps 694 mmHg 77%
    02:00 -2°C° 0 mm 6 mps 695 mmHg 79%
    03:00 -2°C° 0 mm 5 mps 696 mmHg 81%
    04:00 -2°C° 0 mm 3 mps 697 mmHg 83%
    05:00 -4°C° 0 mm 3 mps 697 mmHg 86%
    06:00 -4°C° 0 mm 3 mps 698 mmHg 88%
    07:00 -5°C° 0 mm 3 mps 699 mmHg 90%
    08:00 -4°C° 0 mm 3 mps 700 mmHg 89%
    09:00 -4°C° 0 mm 3 mps 700 mmHg 89%
    10:00 -4°C° 0 mm 3 mps 701 mmHg 89%
    11:00 -4°C° 0 mm 4 mps 701 mmHg 87%
    12:00 -4°C° 0 mm 4 mps 701 mmHg 85%
    13:00 -3°C° 0 mm 4 mps 701 mmHg 84%
    14:00 -4°C° 0 mm 4 mps 701 mmHg 85%
    15:00 -5°C° 0 mm 4 mps 701 mmHg 86%
    16:00 -5°C° 0 mm 4 mps 700 mmHg 87%
    17:00 -5°C° 0 mm 4 mps 700 mmHg 86%
    18:00 -5°C° 0 mm 4 mps 700 mmHg 86%
    19:00 -5°C° 0 mm 4 mps 700 mmHg 85%
    20:00 -5°C° 0.1 mm 5 mps 701 mmHg 83%
    21:00 -5°C° 0.1 mm 5 mps 701 mmHg 82%
    22:00 -4°C° 0.1 mm 6 mps 701 mmHg 81%
    23:00 -4°C° 0 mm 5 mps 702 mmHg 79%

    25 November, Saturday

    Time Temperature Precipitation Wind Pressure Humidity
    00:00 -4°C° 0 mm 5 mps 702 mmHg 78%
    01:00 -4°C° 0 mm 5 mps 702 mmHg 77%
    02:00 -5°C° 0 mm 5 mps 703 mmHg 78%
    03:00 -4°C° 0 mm 4 mps 703 mmHg 80%
    04:00 -5°C° 0 mm 4 mps 704 mmHg 81%
    05:00 -6°C° 0 mm 3 mps 704 mmHg 84%
    06:00 -6°C° 0 mm 3 mps 704 mmHg 88%
    07:00 -7°C° 0 mm 3 mps 705 mmHg 91%
    08:00 -6°C° 0 mm 2 mps 705 mmHg 92%
    09:00 -6°C° 0 mm 2 mps 705 mmHg 93%
    10:00 -7°C° 0 mm 2 mps 705 mmHg 94%
    11:00 -6°C° 0 mm 2 mps 705 mmHg 94%
    12:00 -5°C° 0 mm 2 mps 705 mmHg 93%
    13:00 -5°C° 0 mm 2 mps 705 mmHg 93%
    14:00 -5°C° 0 mm 2 mps 705 mmHg 94%
    15:00 -6°C° 0 mm 2 mps 705 mmHg 95%
    16:00 -4°C° 0 mm 1 mps 705 mmHg 97%
    17:00 -4°C° 0 mm 1 mps 705 mmHg 97%
    18:00 -4°C° 0 mm 1 mps 705 mmHg 97%
    19:00 -4°C° 0 mm 1 mps 705 mmHg 97%
    20:00 -4°C° 0 mm 1 mps 705 mmHg 96%
    21:00 -4°C° 0 mm 1 mps 705 mmHg 96%
    22:00 -4°C° 0 mm 1 mps 705 mmHg 96%
    23:00 -6°C° 0 mm 1 mps 705 mmHg 96%

    26 November, Sunday

    Time Temperature Precipitation Wind Pressure Humidity
    00:00 -6°C° 0 mm 1 mps 704 mmHg 96%
    01:00 -6°C° 0 mm 1 mps 704 mmHg 96%
    02:00 -6°C° 0 mm 1 mps 704 mmHg 96%
    03:00 -7°C° 0 mm 1 mps 704 mmHg 96%
    04:00 -7°C° 0 mm 1 mps 703 mmHg 96%
    05:00 -7°C° 0 mm 1 mps 703 mmHg 95%
    06:00 -7°C° 0 mm 1 mps 703 mmHg 95%
    07:00 -7°C° 0 mm 1 mps 703 mmHg 95%
    08:00 -7°C° 0 mm 1 mps 702 mmHg 94%
    09:00 -7°C° 0 mm 1 mps 702 mmHg 94%
    10:00 -7°C° 0 mm 1 mps 702 mmHg 94%
    11:00 -7°C° 0 mm 1 mps 702 mmHg 93%
    12:00 -6°C° 0 mm 1 mps 702 mmHg 92%
    13:00 -6°C° 0 mm 1 mps 701 mmHg 92%
    14:00 -6°C° 0.1 mm 0 mps 701 mmHg 93%
    15:00 -6°C° 0.1 mm 0 mps 701 mmHg 94%
    16:00 -6°C° 0.1 mm 0 mps 700 mmHg 95%
    17:00 -5°C° 0.3 mm 0 mps 700 mmHg 95%
    18:00 -5°C° 0.3 mm 0 mps 700 mmHg 96%
    19:00 -4°C° 0.3 mm 1 mps 700 mmHg 96%
    20:00 -4°C° 0.5 mm 1 mps 700 mmHg 96%
    21:00 -4°C° 0.5 mm 1 mps 700 mmHg 96%
    22:00 -4°C° 0.5 mm 1 mps 699 mmHg 96%
    23:00 -4°C° 0.4 mm 1 mps 700 mmHg 95%

    27 November, Monday

    Time Temperature Precipitation Wind Pressure Humidity
    00:00 -6°C° 0.4 mm 2 mps 700 mmHg 94%
    01:00 -6°C° 0.4 mm 2 mps 700 mmHg 93%
    02:00 -6°C° 0.3 mm 2 mps 700 mmHg 91%
    03:00 -6°C° 0.3 mm 2 mps 700 mmHg 89%
    04:00 -8°C° 0.3 mm 3 mps 700 mmHg 86%
    05:00 -8°C° 0.1 mm 3 mps 701 mmHg 84%
    06:00 -8°C° 0.1 mm 3 mps 701 mmHg 82%
    07:00 -10°C° 0.1 mm 4 mps 702 mmHg 80%
    08:00 -9°C° 0.1 mm 4 mps 702 mmHg 79%
    09:00 -9°C° 0.1 mm 4 mps 703 mmHg 78%
    10:00 -9°C° 0.1 mm 4 mps 704 mmHg 78%
    11:00 -8°C° 0 mm 3 mps 704 mmHg 78%
    12:00 -8°C° 0 mm 3 mps 704 mmHg 78%
    13:00 -8°C° 0 mm 3 mps 705 mmHg 78%
    14:00 -8°C° 0 mm 2 mps 705 mmHg 79%
    15:00 -9°C° 0 mm 2 mps 705 mmHg 81%
    16:00 -9°C° 0 mm 2 mps 705 mmHg 82%
    17:00 -10°C° 0 mm 2 mps 706 mmHg 82%
    18:00 -10°C° 0 mm 2 mps 706 mmHg 81%
    19:00 -9°C° 0 mm 1 mps 706 mmHg 81%
    20:00 -9°C° 0 mm 1 mps 706 mmHg 80%
    21:00 -9°C° 0 mm 1 mps 707 mmHg 79%
    22:00 -9°C° 0 mm 1 mps 707 mmHg 78%
    23:00 -9°C° 0 mm 1 mps 707 mmHg 77%
    Show more